Muskegon, MI

5:09 PM EDT on October 14, 2019 (GMT -0400)
Muskegon County

Weather History for KMKG - August, 2019

Change the Weather History Date:

Wednesday, August 21, 2019

  Actual Average Record
Temperature  
Mean Temperature 73 °F 70 °F  
Max Temperature 82 °F 79 °F 92 °F (1955)
Min Temperature 63 °F 61 °F 42 °F (2004)
Degree Days  
Heating Degree Days 0 1  
Month to date heating degree days 0 4  
Since 1 June heating degree days 58 81  
Since 1 July heating degree days 1 15  
Cooling Degree Days 8 5  
Month to date cooling degree days 148 122  
Year to date cooling degree days 519 458  
Since 1 June cooling degree days 516 429  
Growing Degree Days 23 (Base 50)    
Moisture  
Dew Point 66 °F    
Average Humidity 75    
Maximum Humidity 93    
Minimum Humidity 56    
Precipitation  
Precipitation 0.00 in 0.11 in 1.33 in (2013)
Month to date precipitation 1.33 2.28  
Year to date precipitation 26.30 19.47  
Snow  
Snow 0.00 in 0.00 in - ()
Month to date snowfall 0.0 0.0  
Since 1 June snowfall 0.0 0.0  
Since 1 July snowfall 0.0 0.0  
Snow Depth 0.00 in    
Sea Level Pressure  
Sea Level Pressure 29.93 in    
Wind  
Wind Speed 5 mph ()    
Max Wind Speed 16 mph    
Max Gust Speed 20 mph    
Visibility 9.3 miles    
Events Fog    
T = Trace of Precipitation, MM = Missing Value Source: Averaged Metar Reports

Daily Weather History Graph

Daily Weather History Graph

Search for Another Location

Airport or City:

Astronomy

Aug. 21, 2019 Rise Set
Actual Time 6:56 AM EDT 8:38 PM EDT
Civil Twilight 6:26 AM EDT 9:08 PM EDT
Nautical Twilight 5:49 AM EDT 9:45 PM EDT
Astronomical Twilight 5:10 AM EDT 10:24 PM EDT
Moon 11:46 PM EDT (8/21) 12:41 PM EDT (8/21)
Length of Visible Light 14h 42m
Length of Day
13h 41m
Waning Gibbous, 69% of the Moon is Illuminated
Aug 21
Waning Gibbous
Aug 23
Last Quarter
Aug 30
New
Sep 5
First Quarter
Sep 14
Full

Hourly Weather History & Observations

Time (EDT) Temp. Heat Index Dew Point Humidity Pressure Visibility Wind Dir Wind Speed Gust Speed Precip Events Conditions
12:47 AM 72.0 °F - 69.1 °F 91% 29.96 in 5.0 mi SW 4.6 mph - N/A   Scattered Clouds
12:55 AM 72.0 °F - 69.1 °F 91% 29.95 in 5.0 mi WSW 6.9 mph - N/A   Mostly Cloudy
1:10 AM 72.0 °F - 69.1 °F 91% 29.96 in 6.0 mi SSW 10.4 mph - N/A   Scattered Clouds
1:55 AM 72.0 °F - 69.1 °F 91% 29.94 in 10.0 mi Calm Calm - N/A   Clear
3:55 AM 71.1 °F - 66.9 °F 87% 29.94 in 10.0 mi SSW 3.5 mph - N/A   Clear
4:55 AM 72.0 °F - 68.0 °F 87% 29.92 in 10.0 mi SW 4.6 mph - N/A   Clear
5:55 AM 70.0 °F - 66.0 °F 87% 29.91 in 8.0 mi SSW 3.5 mph - N/A Fog Shallow Fog
6:55 AM 69.1 °F - 66.0 °F 90% 29.89 in 9.0 mi SSE 3.5 mph - N/A Fog Shallow Fog
7:55 AM 71.1 °F - 68.0 °F 90% 29.88 in 7.0 mi Calm Calm - N/A Fog Shallow Fog
8:38 AM 75.0 °F - 70.0 °F 84% 29.91 in 10.0 mi WSW 8.1 mph - N/A   Scattered Clouds
8:55 AM 75.9 °F - 70.0 °F 82% 29.91 in 10.0 mi West 5.8 mph - N/A   Mostly Cloudy
9:30 AM 75.0 °F - 70.0 °F 84% 29.93 in 10.0 mi West 8.1 mph - N/A   Overcast
9:55 AM 75.9 °F - 69.1 °F 79% 29.92 in 10.0 mi West 9.2 mph - N/A   Overcast
10:04 AM 77.0 °F - 70.0 °F 79% 29.94 in 10.0 mi West 8.1 mph - N/A   Overcast
10:55 AM 79.0 °F - 68.0 °F 69% 29.91 in 10.0 mi West 8.1 mph - N/A   Scattered Clouds
11:55 AM 81.0 °F 83.0 °F 66.0 °F 60% 29.92 in 10.0 mi West 6.9 mph - N/A   Scattered Clouds
12:55 PM 80.1 °F 82.1 °F 66.0 °F 62% 29.93 in 10.0 mi WSW 10.4 mph - N/A   Mostly Cloudy
1:55 PM 82.0 °F 84.5 °F 66.9 °F 60% 29.93 in 10.0 mi West 9.2 mph - N/A   Mostly Cloudy
2:55 PM 81.0 °F 83.3 °F 66.9 °F 62% 29.93 in 10.0 mi WNW 8.1 mph - N/A   Mostly Cloudy
3:55 PM 79.0 °F - 64.9 °F 62% 29.93 in 10.0 mi West 8.1 mph - N/A   Mostly Cloudy
4:55 PM 79.0 °F - 64.9 °F 62% 29.92 in 10.0 mi NW 10.4 mph 17.3 mph N/A   Mostly Cloudy
5:55 PM 77.0 °F - 64.0 °F 64% 29.94 in 10.0 mi NW 6.9 mph - N/A   Overcast
6:55 PM 77.0 °F - 60.1 °F 56% 29.92 in 10.0 mi North 10.4 mph - N/A   Mostly Cloudy
7:55 PM 75.0 °F - 59.0 °F 57% 29.91 in 10.0 mi North 9.2 mph - N/A   Mostly Cloudy
8:55 PM 73.0 °F - 60.1 °F 64% 29.91 in 10.0 mi North 6.9 mph - N/A   Mostly Cloudy
9:55 PM 72.0 °F - 57.9 °F 61% 29.94 in 10.0 mi NNE 3.5 mph - N/A   Mostly Cloudy
10:55 PM 69.1 °F - 59.0 °F 70% 29.94 in 10.0 mi NNE 4.6 mph - N/A   Mostly Cloudy
11:55 PM 64.0 °F - 59.0 °F 84% 29.97 in 10.0 mi SW 3.5 mph - N/A   Clear